Lid_Strength_Index
1 3 1 5 11 12 15 13 10 10 10 9 9 10 10 10 9 12 3 1 0 0 -0 -0 -1 -1 -1 -1 -1 -1 -1 -1 -1 -1 -2 -1 -2 -2 -2 -2 -2 -2 -2 -2 -2 -2 -2 -2 -2
2 2 3 7 13 17 15 11 11 9 8 8 9 8 9 8 6 5 3 1 0 0 -0 -0 -0 -1 -1 -1 -1 -1 -2 -2 -1 -1 -2 -1 -2 -2 -2 -2 -2 -2 -2 -2 -2 -2 -2 -2 -2
3 1 7 10 14 16 15 11 9 8 8 9 9 6 7 8 6 4 2 0 -0 0 -0 -0 -0 -1 -1 -1 -1 -1 -2 -2 -2 -2 -1 -2 -2 -2 -2 -2 -2 -2 -2 -2 -2 -2 -2 -2 -2
5 4 6 13 15 13 11 10 9 9 8 8 9 8 6 4 5 2 1 0 0 0 -0 -0 -1 -1 -1 -1 -1 -2 -2 -2 -2 -2 -2 -1 -2 -2 -2 -2 -2 -2 -2 -2 -2 -2 -2 -2 -2
5 6 12 14 13 13 11 8 8 9 9 8 9 9 8 4 2 1 1 1 1 0 -0 -0 -0 -1 -1 -1 -1 -1 -2 -2 -1 -2 -2 -2 -2 -2 -2 -2 -3 -3 -2 -2 -2 -2 -2 -2 -2
8 7 14 15 13 12 9 8 9 9 8 8 8 9 7 3 3 1 1 1 1 0 0 -0 1 0 -0 -1 -1 -1 -1 -1 -1 -1 -2 -2 -2 -2 -2 -2 -2 -2 -2 -2 -2 -2 -2 -1 -1
9 11 14 13 12 11 10 7 9 9 9 8 6 9 7 4 2 1 1 0 0 -0 -0 -0 -0 0 1 0 -0 -0 -1 -1 -1 -1 -1 -1 -1 -2 -2 -2 -2 -2 -2 -2 -2 -1 -1 -0 -0
7 9 13 12 13 13 9 8 7 7 8 6 5 9 9 6 2 1 1 1 1 1 -0 -0 -0 -0 -0 0 1 1 0 -0 -1 -0 -0 0 -0 -1 -1 -1 -2 -2 -2 -2 -2 -1 -0 -1 -1
6 12 14 12 12 11 8 9 7 6 7 7 6 7 4 3 2 2 2 2 2 1 0 0 0 -0 -0 1 2 2 1 1 1 1 1 1 0 0 0 0 -1 -2 -2 -2 -1 -1 -1 -0 0
9 12 12 9 9 10 8 8 8 8 8 8 7 5 4 3 3 4 4 4 3 2 1 1 0 0 -0 -0 1 0 0 -0 0 1 1 2 1 1 0 1 -0 -1 -1 -2 -1 -1 0 2 4
11 13 10 10 8 8 9 8 7 8 9 8 8 7 5 4 4 4 4 3 3 2 1 0 0 -0 -0 0 0 0 1 2 2 2 2 2 2 2 2 1 1 1 1 2 2 3 4 4 4
13 11 10 9 9 9 10 8 9 8 8 6 6 5 5 5 4 4 4 3 3 2 1 1 0 0 0 -0 0 1 1 1 2 3 2 2 3 3 4 4 4 4 4 4 5 5 4 5 4
13 11 10 10 9 10 9 10 10 10 8 6 6 5 5 5 4 3 3 2 2 2 1 1 1 0 1 1 0 1 2 1 2 3 3 3 3 4 4 4 5 5 5 5 5 4 4 5 4
11 12 12 11 11 10 11 11 10 10 7 7 5 5 5 5 4 4 3 3 3 2 3 1 1 0 -0 0 1 2 3 2 2 3 3 2 2 3 3 3 4 5 5 5 4 4 4 4 4
9 13 12 12 12 12 10 13 12 10 7 8 7 5 5 5 4 4 3 3 2 2 2 1 1 0 0 0 0 2 3 2 2 3 2 2 2 3 3 3 4 5 5 4 4 4 4 4 3
11 11 16 14 12 12 10 17 13 9 9 9 7 6 5 5 4 3 3 2 2 2 2 1 1 0 0 1 1 1 2 2 3 2 2 2 2 2 3 3 4 4 4 4 4 4 4 3 3
13 18 16 14 10 11 12 17 13 10 10 10 8 6 6 6 4 4 3 2 2 2 2 1 1 1 1 1 1 2 2 3 2 1 1 2 2 2 2 2 3 2 3 3 3 3 2 2 3
20 16 15 15 12 10 12 14 12 10 9 9 9 6 6 6 5 4 3 2 2 1 1 1 1 1 1 1 1 2 3 2 2 2 1 2 2 2 2 2 2 2 3 3 3 1 1 1 3
15 15 16 13 10 11 11 13 12 10 9 9 8 7 7 6 5 5 4 5 2 2 2 1 1 1 1 2 2 2 3 2 2 2 2 2 2 2 2 2 2 2 2 2 2 1 2 2 2
13 16 16 13 10 11 12 15 14 11 11 11 9 7 7 6 6 6 7 7 3 2 2 2 1 1 1 1 1 1 1 1 1 2 2 1 1 1 1 2 2 1 2 2 1 2 3 2 2
13 14 15 15 11 10 12 14 13 12 9 10 8 6 7 6 7 8 9 9 7 7 6 2 1 1 1 1 1 1 1 1 1 2 2 1 1 1 1 1 1 1 1 2 2 2 2 3 2
15 11 12 12 15 19 11 20 14 13 11 9 8 7 7 8 8 9 10 10 9 9 8 6 5 5 2 1 1 2 2 3 2 2 1 1 1 1 1 0 0 0 1 1 1 1 2 2 4
13 10 12 12 14 16 15 17 15 11 12 11 9 8 9 10 10 11 11 12 11 10 9 8 6 7 7 7 1 2 2 2 1 2 2 1 1 0 0 0 0 0 0 1 1 2 2 2 3
9 11 12 12 14 19 15 16 17 14 12 11 9 10 11 11 11 12 12 12 12 11 10 9 9 9 10 9 8 1 2 2 2 2 2 1 1 1 1 1 0 0 1 1 1 1 2 2 2
11 14 19 20 20 21 15 16 15 13 12 10 11 11 11 11 12 13 13 13 12 12 12 10 10 10 10 10 10 8 2 2 2 2 2 2 2 2 1 1 1 1 2 2 2 2 2 3 2
14 14 18 25 23 20 15 19 16 13 12 11 12 12 12 12 13 14 13 13 13 13 12 12 11 11 11 11 11 12 10 7 8 6 5 6 7 7 6 5 5 6 5 6 6 6 7 7 7
14 16 12 17 16 19 17 15 13 13 14 13 14 14 15 14 14 14 14 14 14 14 13 12 12 12 12 11 12 13 12 12 11 10 10 9 9 8 8 8 8 8 8 8 8 9 9 9 9
12 11 17 16 22 23 19 18 18 15 15 15 15 15 14 14 14 14 14 14 13 13 13 12 12 13 12 12 12 13 13 13 13 12 12 12 11 10 10 10 10 10 10 10 10 11 11 12 12
14 15 14 15 16 21 21 20 15 14 14 15 15 15 14 15 15 15 15 14 13 13 13 13 13 13 13 13 13 13 13 13 13 13 13 13 13 12 12 12 12 12 12 12 12 13 13 14 14
12 15 14 18 19 19 19 20 15 15 13 14 14 14 14 14 14 14 14 13 14 14 14 14 14 14 13 13 13 13 13 14 14 14 14 14 14 13 13 13 14 13 13 13 14 14 14 15 16